• In Lithuania
  • List of Countries
  • For 7 days
  • Water Temperature
  • Satellite Maps
  • Weather Map
  • Weather Widgets
  • user-avatar
    Login

    Hourly Weather Logrono

    Today, 24 November, Friday

    Time Temperature Precipitation Wind Pressure Humidity
    00:00 +13°C° 0 mm 2 mps 726 mmHg 55%
    01:00 +13°C° 0.2 mm 2 mps 726 mmHg 59%
    02:00 +12°C° 0.2 mm 3 mps 726 mmHg 63%
    03:00 +11°C° 0.2 mm 3 mps 726 mmHg 67%
    04:00 +11°C° 0.3 mm 3 mps 726 mmHg 71%
    05:00 +11°C° 0.3 mm 3 mps 726 mmHg 75%
    06:00 +11°C° 0.3 mm 3 mps 726 mmHg 80%
    07:00 +11°C° 0.1 mm 3 mps 726 mmHg 79%
    08:00 +12°C° 0.1 mm 3 mps 726 mmHg 79%
    09:00 +12°C° 0.1 mm 3 mps 726 mmHg 79%
    10:00 +13°C° 0 mm 4 mps 726 mmHg 74%
    11:00 +15°C° 0 mm 4 mps 726 mmHg 70%
    12:00 +17°C° 0 mm 4 mps 726 mmHg 66%
    13:00 +17°C° 0 mm 4 mps 725 mmHg 65%
    14:00 +17°C° 0 mm 3 mps 725 mmHg 64%
    15:00 +17°C° 0 mm 3 mps 725 mmHg 63%
    16:00 +16°C° 0.3 mm 3 mps 725 mmHg 68%
    17:00 +16°C° 0.3 mm 3 mps 725 mmHg 74%
    18:00 +14°C° 0.3 mm 3 mps 724 mmHg 79%
    19:00 +13°C° 0.1 mm 3 mps 725 mmHg 80%
    20:00 +13°C° 0.1 mm 3 mps 725 mmHg 82%
    21:00 +13°C° 0.1 mm 3 mps 725 mmHg 83%
    22:00 +13°C° 0.6 mm 3 mps 725 mmHg 83%
    23:00 +13°C° 0.6 mm 3 mps 725 mmHg 84%

    Tomorrow, 25 November, Saturday

    Time Temperature Precipitation Wind Pressure Humidity
    00:00 +12°C° 0.6 mm 3 mps 725 mmHg 84%
    01:00 +12°C° 1.2 mm 3 mps 726 mmHg 87%
    02:00 +12°C° 1.2 mm 3 mps 726 mmHg 89%
    03:00 +12°C° 1.2 mm 2 mps 726 mmHg 91%
    04:00 +11°C° 0.3 mm 3 mps 727 mmHg 90%
    05:00 +11°C° 0.3 mm 3 mps 727 mmHg 88%
    06:00 +10°C° 0.3 mm 3 mps 727 mmHg 87%
    07:00 +10°C° 0 mm 3 mps 728 mmHg 84%
    08:00 +10°C° 0 mm 4 mps 729 mmHg 81%
    09:00 +10°C° 0 mm 4 mps 730 mmHg 79%
    10:00 +10°C° 0 mm 4 mps 730 mmHg 75%
    11:00 +9°C° 0 mm 5 mps 730 mmHg 72%
    12:00 +9°C° 0 mm 5 mps 731 mmHg 68%
    13:00 +9°C° 0.1 mm 5 mps 731 mmHg 70%
    14:00 +8°C° 0.1 mm 5 mps 731 mmHg 71%
    15:00 +8°C° 0.1 mm 5 mps 731 mmHg 72%
    16:00 +7°C° 0 mm 4 mps 732 mmHg 75%
    17:00 +7°C° 0 mm 3 mps 732 mmHg 77%
    18:00 +5°C° 0 mm 3 mps 733 mmHg 80%
    19:00 +6°C° 0 mm 2 mps 733 mmHg 81%
    20:00 +6°C° 0 mm 2 mps 733 mmHg 82%
    21:00 +5°C° 0 mm 2 mps 734 mmHg 83%
    22:00 +5°C° 0 mm 2 mps 734 mmHg 83%
    23:00 +5°C° 0 mm 2 mps 734 mmHg 83%

    Day after tomorrow, 26 November, Sunday

    Time Temperature Precipitation Wind Pressure Humidity
    00:00 +5°C° 0 mm 2 mps 734 mmHg 84%
    01:00 +5°C° 0 mm 2 mps 734 mmHg 84%
    02:00 +4°C° 0 mm 2 mps 734 mmHg 84%
    03:00 +4°C° 0 mm 2 mps 734 mmHg 85%
    04:00 +4°C° 0 mm 2 mps 735 mmHg 85%
    05:00 +4°C° 0 mm 2 mps 735 mmHg 84%
    06:00 +4°C° 0 mm 2 mps 735 mmHg 84%
    07:00 +5°C° 0 mm 2 mps 735 mmHg 82%
    08:00 +6°C° 0 mm 2 mps 735 mmHg 79%
    09:00 +6°C° 0 mm 2 mps 736 mmHg 76%
    10:00 +7°C° 0 mm 2 mps 736 mmHg 70%
    11:00 +8°C° 0 mm 2 mps 735 mmHg 64%
    12:00 +9°C° 0 mm 2 mps 735 mmHg 58%
    13:00 +9°C° 0 mm 2 mps 735 mmHg 57%
    14:00 +9°C° 0 mm 2 mps 734 mmHg 56%
    15:00 +9°C° 0 mm 2 mps 734 mmHg 55%
    16:00 +8°C° 0 mm 2 mps 734 mmHg 62%
    17:00 +6°C° 0 mm 2 mps 734 mmHg 69%
    18:00 +6°C° 0 mm 1 mps 734 mmHg 76%
    19:00 +5°C° 0 mm 1 mps 734 mmHg 77%
    20:00 +5°C° 0 mm 1 mps 734 mmHg 78%
    21:00 +4°C° 0 mm 1 mps 734 mmHg 78%
    22:00 +5°C° 0 mm 1 mps 734 mmHg 75%
    23:00 +5°C° 0 mm 1 mps 734 mmHg 72%

    27 November, Monday

    Time Temperature Precipitation Wind Pressure Humidity
    00:00 +4°C° 0 mm 0 mps 734 mmHg 70%
    01:00 +4°C° 0 mm 0 mps 734 mmHg 68%
    02:00 +4°C° 0 mm 0 mps 733 mmHg 67%
    03:00 +4°C° 0 mm 0 mps 733 mmHg 65%
    04:00 +4°C° 0 mm 0 mps 733 mmHg 64%
    05:00 +3°C° 0 mm 0 mps 733 mmHg 64%
    06:00 +4°C° 0 mm 1 mps 733 mmHg 63%
    07:00 +4°C° 0 mm 0 mps 733 mmHg 59%
    08:00 +5°C° 0 mm 0 mps 733 mmHg 55%
    09:00 +6°C° 0 mm 0 mps 734 mmHg 51%
    10:00 +7°C° 0 mm 0 mps 733 mmHg 46%
    11:00 +10°C° 0 mm 1 mps 733 mmHg 40%
    12:00 +11°C° 0 mm 1 mps 733 mmHg 35%
    13:00 +12°C° 0 mm 1 mps 732 mmHg 35%
    14:00 +12°C° 0 mm 1 mps 732 mmHg 36%
    15:00 +12°C° 0 mm 1 mps 731 mmHg 36%
    16:00 +10°C° 0 mm 1 mps 731 mmHg 43%
    17:00 +8°C° 0 mm 1 mps 731 mmHg 49%
    18:00 +6°C° 0 mm 1 mps 731 mmHg 56%
    19:00 +6°C° 0 mm 1 mps 732 mmHg 57%
    20:00 +5°C° 0 mm 1 mps 732 mmHg 59%
    21:00 +5°C° 0 mm 1 mps 732 mmHg 60%
    22:00 +5°C° 0 mm 1 mps 731 mmHg 59%
    23:00 +4°C° 0 mm 1 mps 731 mmHg 58%

    28 November, Tuesday

    Time Temperature Precipitation Wind Pressure Humidity
    00:00 +4°C° 0 mm 1 mps 731 mmHg 58%
    01:00 +4°C° 0 mm 1 mps 731 mmHg 57%
    02:00 +4°C° 0 mm 1 mps 730 mmHg 56%
    03:00 +4°C° 0 mm 1 mps 730 mmHg 55%
    04:00 +4°C° 0 mm 1 mps 730 mmHg 55%
    05:00 +4°C° 0 mm 1 mps 729 mmHg 56%
    06:00 +4°C° 0 mm 1 mps 729 mmHg 56%
    07:00 +5°C° 0 mm 1 mps 729 mmHg 54%
    08:00 +6°C° 0 mm 1 mps 729 mmHg 52%
    09:00 +7°C° 0 mm 1 mps 729 mmHg 50%
    10:00 +9°C° 0 mm 1 mps 729 mmHg 46%
    11:00 +10°C° 0 mm 2 mps 728 mmHg 43%
    12:00 +13°C° 0 mm 2 mps 728 mmHg 40%
    13:00 +13°C° 0 mm 1 mps 727 mmHg 41%
    14:00 +13°C° 0 mm 1 mps 727 mmHg 42%
    15:00 +13°C° 0 mm 1 mps 726 mmHg 43%
    16:00 +11°C° 0 mm 1 mps 726 mmHg 50%
    17:00 +9°C° 0 mm 1 mps 726 mmHg 56%
    18:00 +7°C° 0 mm 1 mps 726 mmHg 63%
    19:00 +7°C° 0 mm 1 mps 726 mmHg 64%
    20:00 +5°C° 0 mm 0 mps 726 mmHg 66%
    21:00 +5°C° 0 mm 0 mps 726 mmHg 68%
    22:00 +5°C° 0 mm 0 mps 726 mmHg 69%
    23:00 +6°C° 0 mm 1 mps 725 mmHg 71%

    29 November, Wednesday

    Time Temperature Precipitation Wind Pressure Humidity
    00:00 +5°C° 0 mm 1 mps 725 mmHg 72%
    01:00 +5°C° 0 mm 1 mps 725 mmHg 73%
    02:00 +5°C° 0 mm 1 mps 724 mmHg 74%
    03:00 +5°C° 0 mm 1 mps 724 mmHg 75%
    04:00 +5°C° 0 mm 1 mps 724 mmHg 75%
    05:00 +4°C° 0 mm 1 mps 724 mmHg 76%
    06:00 +4°C° 0 mm 1 mps 724 mmHg 76%
    07:00 +5°C° 0 mm 1 mps 724 mmHg 72%
    08:00 +7°C° 0 mm 1 mps 724 mmHg 67%
    09:00 +8°C° 0 mm 1 mps 724 mmHg 63%
    10:00 +8°C° 0 mm 2 mps 724 mmHg 59%
    11:00 +10°C° 0 mm 2 mps 724 mmHg 56%
    12:00 +12°C° 0 mm 2 mps 724 mmHg 52%
    13:00 +10°C° 0 mm 2 mps 724 mmHg 59%
    14:00 +10°C° 0 mm 3 mps 724 mmHg 65%
    15:00 +9°C° 0 mm 3 mps 723 mmHg 72%
    16:00 +8°C° 0.1 mm 3 mps 724 mmHg 77%
    17:00 +7°C° 0.1 mm 3 mps 724 mmHg 82%
    18:00 +7°C° 0.1 mm 2 mps 725 mmHg 87%
    19:00 +6°C° 0.1 mm 2 mps 725 mmHg 88%
    20:00 +6°C° 0.1 mm 2 mps 726 mmHg 88%
    21:00 +6°C° 0.1 mm 2 mps 726 mmHg 89%
    22:00 +5°C° 0 mm 2 mps 727 mmHg 90%
    23:00 +4°C° 0 mm 2 mps 727 mmHg 91%
    Show more